Regional Weather Roundup
Issued by NWS

Home | Current Version | Previous Version | Graphics & Text | Print | Product List | Glossary On
Versions: 1 2 3 4 5 6 7 8 9 10 11 12 13 14 15 16 17 18 19 20 21 22 23 24 25 26 27 28 29 30 31 32 33 34 35 36 37 38 39 40 41 42 43 44 45 46 47 48 49 50
000
ASUS43 KLOT 060900
RWRIL

ILLINOIS REGIONAL WEATHER ROUNDUP
NATIONAL WEATHER SERVICE CHICAGO/ROMEOVILLE IL
300 AM CST FRI MAR 06 2015

NOTE: "FAIR" INDICATES FEW OR NO CLOUDS BELOW 12,000 FEET WITH NO
SIGNIFICANT WEATHER AND/OR OBSTRUCTIONS TO VISIBILITY.

* THESE STATIONS ARE NOT UNDER NWS QUALITY CONTROL. THEY ALSO MAY NOT
  REPORT WEATHER SUCH AS PRECIPITATION OR FOG.

ILZ001-002-007-009-015-016-024-061000-
NORTHWEST ILLINOIS

CITY           SKY/WX    TMP DP  RH WIND       PRES   REMARKS
MOLINE         PTCLDY     5  -3  69 S5        30.46F WCI  -4
STERLING*      MOCLDY    -9 -15  77 CALM      30.46F
$$

ILZ003-004-008-010-011-017-018-061000-
NORTH CENTRAL ILLINOIS

CITY           SKY/WX    TMP DP  RH WIND       PRES   REMARKS
ROCKFORD       MOCLDY    -4  -9  79 S5        30.46F WCI -15
FREEPORT*      MOCLDY    -4  -9  77 S8        30.45F WCI -19
$$

ILZ005-006-012>014-019>023-061000-
NORTHEAST ILLINOIS

CITY           SKY/WX    TMP DP  RH WIND       PRES   REMARKS
CHICAGO-OHARE  PTCLDY     4  -3  73 SW5       30.47F WCI  -5
CHICAGO-MIDWAY CLEAR      7  -2  66 S5        30.49F WCI  -2
AURORA         PTCLDY    -4 -11  72 CALM      30.48F
LANSING*       CLEAR     -1  -5  83 SW6       30.51F WCI -13
WAUKEGAN       PTCLDY    -3  -7  82 SW7       30.45F WCI -16
DUPAGE AIRPORT PTCLDY    -1  -6  79 S6        30.46F WCI -13
WHEELING       PTCLDY     4  -4  69 S5        30.49F WCI  -5
NORTHERLY ISL    N/A      9   1  70 SW7         N/A  WCI  -2
$$

LMZ740>746-061000-
SOUTHERN LAKE MICHIGAN

STATION/POSITION SKY/WX   TEMP    WIND        PRES    VSBY  WAVE
                          AIR SEA DIR/SP/G                  HT/PER
                          (F)     (DEG/KT/KT) (MB)    (MI)  (FT/S)
WAUKEGAN HARBOR             5                   N/A
HARRISON CRIB              10     250/ 11/ 14   N/A
BURNHAM HARBOR              9     250/  2/ 10   N/A
CALUMET HARBOR              7     200/  5/  7 1031.5F
MICHIGAN CITY               6     180/  9/  9   N/A
$$

ILZ025>027-034>036-040-047-049-050-058-095>099-061000-
WEST-CENTRAL ILLINOIS

CITY           SKY/WX    TMP DP  RH WIND       PRES   REMARKS
QUINCY         CLEAR     11   1  64 S9        30.47F WCI  -2
MACOMB*        PTCLDY     6   0  79 S9        30.50F WCI  -8
$$

ILZ028>032-037-038-041>044-048-051>054-059>061-061000-
CENTRAL ILLINOIS

CITY           SKY/WX    TMP DP  RH WIND       PRES   REMARKS
DECATUR        PTCLDY    -5 -12  72 S3        30.53F
PEORIA         PTCLDY     5  -1  76 S5        30.52F WCI  -4
SPRINGFIELD    PTCLDY     3  -3  76 S9        30.53F WCI -12
TAYLORVILLE    NOT AVBL
$$

ILZ033-039-045-046-055>057-062-063-061000-
EAST-CENTRAL ILLINOIS

CITY           SKY/WX    TMP DP  RH WIND       PRES   REMARKS
CHAMPAIGN      MOCLDY    -5  -9  83 S7        30.52F WCI -19
MATTOON        FAIR      -2  -6  83 S5        30.53F WCI -12
$$

ILZ079-100>102-061000-
SOUTHWEST ILLINOIS

CITY           SKY/WX    TMP DP  RH WIND       PRES   REMARKS
BELLEVILLE     CLEAR     10   8  92 SW2       30.56F
CAHOKIA*       CLEAR     14   7  73 S7        30.56F WCI   4
$$

ILZ064>066-069>071-074>076-080>082-084>086-088>090-092>094-061000-
SOUTH-CENTRAL ILLINOIS

CITY           SKY/WX    TMP DP  RH WIND       PRES   REMARKS
CARBONDALE     PTCLDY     2  -2  83 CALM      30.59F
MT. VERNON     PTCLDY     1  -4  78 CALM      30.58S
$$

ILZ067-068-072-073-078-083-087-091-061000-
SOUTHEAST ILLINOIS

CITY           SKY/WX    TMP DP  RH WIND       PRES   REMARKS
LAWRENCEVILLE  PTCLDY     3  -1  83 CALM      30.59F
$$

ABBREVIATIONS USED IN REMARKS
   TC - TEMPERATURE IN CELSIUS
  WCI - WIND CHILL INDEX
   HX - HEAT INDEX
  VSB - VISIBILITY
$$



USA.gov is the U.S. government's official web portal to all federal, state and local government web resources and services.